Regional Weather Roundup
Issued by NWS Newport/Morehead, NC

Current Version | Previous Version | Graphics & Text | Print | Product List | Glossary Off
Versions: 1 2 3 4 5 6 7 8 9 10 11 12 13 14 15 16 17 18 19 20 21 22 23 24 25 26 27 28 29 30 31 32 33 34 35 36 37 38 39 40 41 42 43 44 45 46 47 48 49 50

000
ASUS42 KMHX 251413
RWRMHX
WEATHER ROUNDUP FOR EASTERN NORTH CAROLINA
NATIONAL WEATHER SERVICE NEWPORT/MOREHEAD CITY NC
1000 AM EDT SUN SEP 25 2016

NOTE: "FAIR" INDICATES FEW OR NO CLOUDS BELOW 12,000 FEET
WITH NO SIGNIFICANT WEATHER AND/OR OBSTRUCTIONS TO VISIBILITY

NCZ015>017-031-032-045>047-102-103-251500-
NORTH COAST

CITY           SKY/WX    TMP DP  RH WIND       PRES   REMARKS
EDENTON        CLOUDY    71  69  95 NE5       30.17R
ELIZABETH CITY CLOUDY    71  59  65 NE10      30.17R
KITTY HAWK     NOT AVBL
MANTEO         CLOUDY    71  56  60 E10       30.16R

$$

NCZ045>047-081-094-103-104-251500-
CENTRAL COAST

CITY           SKY/WX    TMP DP  RH WIND       PRES   REMARKS
FRISCO         CLOUDY    72  64  76 NE7G17    30.13S

$$

NCZ095-097-098-100-101-251500-
SOUTHERN COAST

CITY           SKY/WX    TMP DP  RH WIND       PRES   REMARKS
BEAUFORT       PTSUNNY   77  70  79 NE10      30.12S
CEDAR ISLAND   NOT AVBL
JACKSONVILLE   CLOUDY    75  68  78 NE8       30.13R
PINEY ISLAND   CLOUDY   N/A N/A N/A NE13      30.13R
WILMINGTON     SUNNY     79  72  79 NE6       30.12R


$$

NCZ011>013-027>030-043-044-078>080-089-090>093-098-251500-
COASTAL PLAIN

CITY           SKY/WX    TMP DP  RH WIND       PRES   REMARKS
AHOSKIE        MOSUNNY   68  66  93 NE3       30.17R
CLINTON        MOSUNNY   74  70  88 E7        30.14R
ELIZABETHTOWN  PTSUNNY   75  72  88 E5        30.13R
GOLDSBORO      PTSUNNY   73  72  94 NE7       30.14R
GREENVILLE     CLOUDY    70  68  94 NE8       30.16S
HAVELOCK       CLOUDY    75  68  78 NE10      30.14R
KENANSVILLE    CLOUDY    72  70  94 NE5       30.15R FOG
KINSTON        PTSUNNY   72  68  88 NE7       30.16R
NEW BERN       CLOUDY    73  67  81 NE8       30.15R
RICHLANDS      CLOUDY    74  70  87 NE9       30.14
ROCKY MOUNT    CLOUDY    71  68  90 NE6       30.16S
WASHINGTON     CLOUDY    69  67  93 NE3       30.16R
WHITEVILLE     NOT AVBL

$$

AMZ130-135-150-152-154-156-158-170-250-252-270-ANZ085-086-088-633-658-670-251500-
MARINE OBSERVATIONS

STATION/POSITION TIME  TEMP    WIND        PRES    WAVE   SWELL
                       AIR SEA DIR/SP/G            HT/PER HT/PER
                 (UTC) (F)     (DEG/KT/KT) (MB)    (FT/S) (FT/S)
CHESAPEAKE LIGHT NOT AVBL
64 E VA BEACH    1350   70 74   30/ 17/ 21 1020.6    5/11   3/11
DUCK             1348   71 77   40/ 14/ 17 1020.6
2 E DUCK         1341      77                N/A     5/11   2/11
OREGON INLET     1348   72 78   10/ 10/ 15 1020.6
13E OREGON INLT  1400      76                N/A     5/ 8   5/ 8
HATTERAS CG      1348   71 81   40/ 11/ 16 1020.0
DIAMOND BUOY     1350   71 85   30/ 19/ 23 1019.5    6/10   3/10
CAPE LOOKOUT     1400   76      40/ 16/ 18 1019.6
BEAUFORT LAB     1348   75 79   40/  9/ 11 1019.5
30 SE NEW RVR IN 1308   79 82   50/ 16/ 21 1019.0
30 SE NEW RVR IN 1355      82                N/A     4/11   2/11
27 SE WRIGHTSVLE 1308   80 81   50/ 14/ 17 1019.3
5 SE WRIGHTSVLE  1308   77 81   40/ 16/ 19 1020.4
225 S CAPE HAT   1350   82 83   50/  8/ 10 1017.3    4/10   3/10
41 SE CHARLESTON 1350   82 82   50/ 14/ 17 1017.7    4/11   3/11

$$



USA.gov is the U.S. government's official web portal to all federal, state and local government web resources and services.